Orange, MA

4:29 PM EST on November 22, 2017 (GMT -0500)
Orange Municipal

Weather History for KORE - December, 2014

Change the Weather History Date:

Wednesday, December 3, 2014

  Actual Average Record
Temperature  
Mean Temperature 38 °F -  
Max Temperature 43 °F 39 °F 57 °F (1998)
Min Temperature 32 °F 21 °F 7 °F (2000)
Degree Days  
Heating Degree Days 28    
Moisture  
Dew Point 34 °F    
Average Humidity 91    
Maximum Humidity 100    
Minimum Humidity 57    
Precipitation  
Precipitation 0.39 in - - ()
Sea Level Pressure  
Sea Level Pressure 30.09 in    
Wind  
Wind Speed 6 mph (WSW)    
Max Wind Speed 20 mph    
Max Gust Speed 32 mph    
Visibility 6 miles    
Events Fog , Rain    
Averages and records for this station are not official NWS values.
T = Trace of Precipitation, MM = Missing Value Source: NWS Daily Summary

Daily Weather History Graph

Daily Weather History Graph

Search for Another Location

Airport or City:

Trip Planner

Search our weather history database for the weather conditions in past years. The results will help you decide how hot, cold, wet, or windy it might be!

Date:

Astronomy

Dec. 03, 2014 Rise Set
Actual Time 7:01 AM EST 4:16 PM EST
Civil Twilight 6:29 AM EST 4:47 PM EST
Nautical Twilight 5:54 AM EST 5:23 PM EST
Astronomical Twilight 5:20 AM EST 5:57 PM EST
Moon 2:38 PM EST (12/3) 3:41 AM EST (12/3)
Length of Visible Light 10h 18m
Length of Day
9h 15m
Waxing Gibbous, 91% of the Moon is Illuminated
Dec 3
Waxing Gibbous
Dec 6
Full
Dec 14
Last Quarter
Dec 21
New
Dec 28
First Quarter

Hourly Weather History & Observations

Time (EST) Temp. Windchill Dew Point Humidity Pressure Visibility Wind Dir Wind Speed Gust Speed Precip Events Conditions
12:00 AM 32.0 °F 28.7 °F 30.9 °F 96% 30.38 in 3.0 mi NNW 3.5 mph - 0.00 in Rain Light Freezing Rain
12:06 AM 32.0 °F 27.5 °F 30.9 °F 96% 30.38 in 4.0 mi NNW 4.6 mph - 0.01 in Rain Light Freezing Rain
12:52 AM 32.0 °F 25.6 °F 30.9 °F 96% 30.36 in 6.0 mi NW 6.9 mph - 0.07 in Rain Light Freezing Rain
1:14 AM 33.1 °F 28.7 °F 30.9 °F 92% 30.32 in 5.0 mi NNW 4.6 mph - 0.02 in   Overcast
1:52 AM 33.1 °F - 32.0 °F 96% 30.32 in 4.0 mi Calm Calm - 0.08 in Rain Rain
2:17 AM 33.1 °F - 30.9 °F 92% 30.28 in 4.0 mi Calm Calm - 0.05 in Rain Light Rain
2:25 AM 33.1 °F 28.7 °F 32.0 °F 96% 30.28 in 6.0 mi WNW 4.6 mph - 0.05 in Rain Light Rain
2:52 AM 33.1 °F 27.7 °F 30.9 °F 92% 30.28 in 6.0 mi NW 5.8 mph - 0.05 in Rain Light Rain
3:35 AM 33.1 °F 28.7 °F 32.0 °F 96% 30.23 in 4.0 mi NW 4.6 mph - 0.08 in Rain Rain
3:52 AM 33.1 °F 30.0 °F 32.0 °F 96% 30.23 in 4.0 mi North 3.5 mph - 0.11 in Rain Rain
4:52 AM 33.1 °F - 32.0 °F 96% 30.19 in 7.0 mi Calm Calm - 0.05 in Rain Light Rain
5:01 AM 33.1 °F 30.0 °F 32.0 °F 96% 30.16 in 5.0 mi NW 3.5 mph - 0.00 in Rain Light Rain
5:23 AM 33.1 °F 27.7 °F 32.0 °F 96% 30.15 in 7.0 mi NW 5.8 mph - 0.00 in   Overcast
5:52 AM 33.1 °F 28.7 °F 32.0 °F 96% 30.16 in 5.0 mi NW 4.6 mph - 0.00 in Rain Light Rain
6:52 AM 33.1 °F - 32.0 °F 96% 30.14 in 7.0 mi Calm Calm - 0.01 in   Overcast
7:52 AM 33.1 °F - 33.1 °F 100% 30.12 in 4.0 mi Calm Calm - N/A   Overcast
8:26 AM 33.1 °F 30.0 °F 33.1 °F 100% 30.09 in 1.8 mi South 3.5 mph - N/A   Overcast
8:32 AM 33.1 °F - 33.1 °F 100% 30.08 in 1.2 mi Calm Calm - N/A   Overcast
8:44 AM 33.1 °F - 32.0 °F 96% 30.07 in 0.8 mi Calm Calm - N/A   Overcast
8:52 AM 33.1 °F 30.0 °F 33.1 °F 100% 30.10 in 0.8 mi South 3.5 mph - N/A   Overcast
9:02 AM 33.1 °F 30.0 °F 32.0 °F 96% 30.08 in 0.5 mi South 3.5 mph - N/A Fog Fog
9:52 AM 33.1 °F - 33.1 °F 100% 30.09 in 0.2 mi Calm Calm - N/A Fog Fog
10:52 AM 35.1 °F 30.1 °F 34.0 °F 96% 30.04 in 0.8 mi SSE 5.8 mph - N/A   Overcast
11:01 AM 35.1 °F 30.1 °F 35.1 °F 100% 30.02 in 1.2 mi SSE 5.8 mph - N/A   Overcast
11:07 AM 36.0 °F 30.3 °F 35.1 °F 97% 30.01 in 2.0 mi South 6.9 mph - N/A   Overcast
11:17 AM 37.0 °F 31.0 °F 36.0 °F 96% 30.01 in 6.0 mi South 8.1 mph - N/A   Overcast
11:49 AM 37.4 °F 31.4 °F 37.4 °F 100% 29.99 in 2.5 mi South 8.1 mph - N/A   Overcast
11:52 AM 37.9 °F 31.5 °F 37.0 °F 97% 30.01 in 3.0 mi South 9.2 mph - N/A   Overcast
12:27 PM 39.0 °F 31.4 °F 37.9 °F 96% 29.96 in 10.0 mi South 12.7 mph - N/A   Overcast
12:52 PM 39.9 °F 31.4 °F 37.9 °F 93% 29.96 in 10.0 mi South 16.1 mph - N/A   Overcast
1:52 PM 41.0 °F 33.9 °F 39.0 °F 93% 29.93 in 10.0 mi South 12.7 mph - N/A   Overcast
2:52 PM 42.1 °F 34.9 °F 39.0 °F 89% 29.91 in 10.0 mi South 13.8 mph - 0.00 in Rain Light Rain
3:52 PM 42.1 °F 37.1 °F 39.9 °F 92% 29.89 in 10.0 mi South 8.1 mph - 0.00 in   Overcast
4:42 PM 43.0 °F 38.2 °F 39.9 °F 89% 29.88 in 10.0 mi SSW 8.1 mph - N/A   Overcast
4:52 PM 42.1 °F 38.4 °F 39.9 °F 92% 29.90 in 10.0 mi SSW 5.8 mph - N/A   Overcast
5:52 PM 43.0 °F 38.8 °F 39.9 °F 89% 29.91 in 10.0 mi WSW 6.9 mph - N/A   Overcast
6:09 PM 43.0 °F 37.7 °F 39.9 °F 89% 29.90 in 10.0 mi SW 9.2 mph - N/A   Overcast
6:29 PM 43.0 °F 37.7 °F 39.9 °F 89% 29.91 in 10.0 mi SW 9.2 mph 18.4 mph N/A   Overcast
6:52 PM 43.0 °F 38.2 °F 39.0 °F 86% 29.94 in 10.0 mi SW 8.1 mph - N/A   Overcast
7:48 PM 39.2 °F 30.8 °F 35.6 °F 87% 29.97 in 8.0 mi WNW 15.0 mph - 0.01 in Rain Light Rain
7:52 PM 39.9 °F 32.5 °F 35.1 °F 83% 30.00 in 10.0 mi West 12.7 mph 20.7 mph 0.01 in Rain Light Rain
8:52 PM 39.0 °F 29.3 °F 32.0 °F 76% 30.04 in 10.0 mi WNW 19.6 mph 31.1 mph 0.00 in Rain Light Rain
8:59 PM 37.9 °F 28.2 °F 32.0 °F 79% 30.04 in 7.0 mi West 18.4 mph 32.2 mph 0.00 in Rain Light Rain
9:20 PM 37.0 °F 27.4 °F 30.0 °F 76% 30.04 in 10.0 mi WNW 17.3 mph 28.8 mph 0.01 in   Mostly Cloudy
9:52 PM 36.0 °F 27.5 °F 26.1 °F 67% 30.08 in 10.0 mi West 12.7 mph 23.0 mph 0.01 in   Clear
10:52 PM 37.0 °F 29.8 °F 23.0 °F 57% 30.09 in 10.0 mi West 10.4 mph 25.3 mph N/A   Clear
11:52 PM 35.1 °F 29.3 °F 23.0 °F 61% 30.11 in 10.0 mi West 6.9 mph - N/A   Scattered Clouds